Wilmington, OH NWS (KILN) Doppler Radar Loop using GRLevel3 Software
Last 10 volume scans
Wilmington, OH Radar using GRLevel3

  ILN Radar Status: 
                    FTMILN
                    MESSAGE DATE:  OCT 20 2017 04:30:00
                    THE WSR-88D AT WILMINGTON, OHIO IS BACK IN SERVICE.
                    
                    

Wilmington, OH NWS Radar Loop
Wilmington OH Radar Loop

Regional Radar Loop
Regional Radar Loop

Eastern US Sector IR Image
Eastern US Sector IR Image

Latest image from the National Oceanic and Atmospheric Administration (NOAA) Geostationary Satellite Server.


SPC Day 1 Categorical Outlook
SPC Day 1 Categorical Outlook

Category Criteria
Thunderstorms - 10% or greater probability of non-severe or near severe thunderstorms.
1: Marginal - 2% tornado probability, or
- 5% severe hail or severe wind probability.
2: Slight - 5% tornado probability, or
- 15% severe hail or severe wind probability WITH OR WITHOUT 10% or greater probability of hail 2 inches or greater in diameter, or wind gusts 75 mph or greater.
3: Enhanced - 10% tornado probability WITH OR WITHOUT 10% or greater probability of an EF2+ tornado, or
- 15% tornado probability, or
- 30% severe hail or severe wind probability WITH OR WITHOUT 10% or greater probability of hail 2 inches or greater in diameter, or wind gusts 75 mph or greater, or
- 45% probability of severe hail or wind.
4: Moderate - 15% tornado probability AND 10% or greater probability of an EF2+ tornado, or
- 30% tornado probability, or
- 45% severe wind probability AND 10% or greater probability of a wind gusts 75 mph or greater, or
- 45% severe hail probability AND 10% or greater probability of hail 2 inches or greater in diameter, or
- 60% severe wind probability, or
- 60% severe hail probability WITH OR WITHOUT 10% or greater probability of hail 2 inches or greater in diameter.
5: High - 30% tornado probability AND 10% or greater probability of an EF2+ tornado, or
- 45% or greater tornado probability WITH OR WITHOUT 10% or greater probability of an EF2+ tornado, or
- 60% severe wind probability AND a 10% or greater probability of a wind gust 75 mph or greater.

NOAA Day 1 National Forecast Map
NOAA Day 1 National Forcast Map

Day 1 Precipitation Forecast
Day 1 Precipitation Forecast


SPC Day 2 Categorical Outlook
SPC Day 2 Categorical Outlook

NOAA Day 2 National Forecast Map
NOAA Day 2 National Forcast Map

Day 2 Precipitation Forecast
Day 2 Precipitation Forecast


SPC Day 3 Categorical Outlook
SPC Day 3 Categorical Outlook

NOAA Day 3 National Forecast Map
NOAA Day 3 National Forcast Map

Day 3 Precipitation Forecast
Day 3 Precipitation Forecast


National Weather Service Regional Observations

Station State Time Temperature Dew Point RH Wind Heat Index Wind Chill Pressure Visibility Weather
Charleston West Virginia 10/20/2017 12:54:00 AM 48.9 46.0 90 Calm N/A N/A 30.26 10.0 --
Chicago O'hare Illinois 10/20/2017 12:51:00 AM 55.9 37.9 51 S (170) at 8 N/A N/A 30.15 10.0 --
Cleveland Ohio 10/20/2017 12:51:00 AM 51.1 46.9 86 Calm N/A N/A 30.21 10.0 --
Columbus Ohio 10/20/2017 12:51:00 AM 54.0 50.0 86 Calm N/A N/A 30.21 10.0 --
Covington Kentucky 10/20/2017 12:52:00 AM 57.0 52.0 83 Calm N/A N/A 30.23 10.0 --
Dayton Ohio 10/19/2017 11:56:00 PM 55.0 50.0 83 SW (230) at 8 N/A N/A 30.23 10.0 --
Dothan Alabama 10/20/2017 12:53:00 AM 59.0 57.9 96 NE (40) at 6 N/A N/A 30.24 10.0 --
Evansville Indiana 10/20/2017 12:54:00 AM 54.0 51.1 90 Calm N/A N/A 30.22 10.0 --
Fort Wayne Indiana 10/20/2017 12:54:00 AM 48.0 43.0 83 Calm N/A N/A 30.21 10.0 --
Frankfort Kentucky 10/20/2017 12:53:00 AM 50.0 46.0 86 Calm N/A N/A 30.25 10.0 --
Huntsville Alabama 10/20/2017 12:53:00 AM 52.0 51.1 97 ENE (70) at 5 N/A N/A 30.24 10.0 --
Indianapolis Indiana 10/20/2017 12:54:00 AM 57.9 51.1 78 SW (230) at 5 N/A N/A 30.22 10.0 --
Knoxville Tennessee 10/20/2017 12:53:00 AM 53.1 50.0 89 Calm N/A N/A 30.26 10.0 --
Lexington Kentucky 10/20/2017 12:54:00 AM 50.0 46.0 86 SSE (160) at 5 N/A N/A 30.26 10.0 --
Louisville Kentucky 10/19/2017 11:56:00 PM 57.9 53.1 84 SE (140) at 5 N/A N/A 30.24 10.0 --
Nashville Tennessee 10/20/2017 12:53:00 AM 51.1 48.0 89 S (180) at 5 N/A N/A 30.24 10.0 --
Noctor/Jackson Kentucky 10/20/2017 12:53:00 AM 54.0 46.9 77 Calm N/A N/A 30.27 10.0 --
Paducah Kentucky 10/20/2017 12:53:00 AM 50.0 46.0 86 Calm N/A N/A 30.21 10.0 --
Pittsburgh Pennsylvania 10/20/2017 12:51:00 AM 55.0 46.9 74 WNW (290) at 5 N/A N/A 30.20 10.0 --
St. Louis Missouri 10/20/2017 12:51:00 AM 64.0 50.0 60 S (180) at 7 N/A N/A 30.16 10.0 --
Wilmington Ohio 10/20/2017 12:54:00 AM 55.0 51.1 86 WSW (250) at 7 N/A N/A 30.23 10.0 --

These are regional hourly observations made by the National Weather Service. The observations are usually made between 50 and 59 minutes past the hour and are usually available by 15 minutes past the next hour.


This page will reload automatically every 10 minutes.

36,197 Page Views